TimeCDT,TemperatureF,Dew PointF,Humidity,Sea Level PressureIn,VisibilityMPH,Wind Direction,Wind SpeedMPH,Gust SpeedMPH,PrecipitationIn,Events,Conditions,WindDirDegrees,DateUTC
12:15 AM,71.6,60.8,69,29.99,4.0,NNE,3.5,-,N/A,,Overcast,20,2013-08-01 05:15:00
12:55 AM,69.8,59.0,68,29.99,4.0,Calm,Calm,-,N/A,,Mostly Cloudy,0,2013-08-01 05:55:00
1:15 AM,71.6,60.8,69,29.98,7.0,NNW,5.8,-,N/A,,Overcast,340,2013-08-01 06:15:00
1:35 AM,71.6,60.8,69,29.99,10.0,NNW,3.5,-,N/A,,Mostly Cloudy,330,2013-08-01 06:35:00
1:55 AM,69.8,59.0,68,29.98,8.0,Calm,Calm,-,N/A,,Mostly Cloudy,0,2013-08-01 06:55:00
2:15 AM,69.8,59.0,68,29.98,10.0,WNW,4.6,-,N/A,,Mostly Cloudy,300,2013-08-01 07:15:00
2:35 AM,69.8,59.0,68,29.98,10.0,WNW,4.6,-,N/A,,Mostly Cloudy,300,2013-08-01 07:35:00
2:55 AM,69.8,57.2,64,29.98,8.0,West,4.6,-,N/A,,Scattered Clouds,270,2013-08-01 07:55:00
3:15 AM,69.8,57.2,64,29.98,6.0,West,3.5,-,N/A,,Mostly Cloudy,280,2013-08-01 08:15:00
3:35 AM,69.8,57.2,64,29.98,6.0,WNW,5.8,-,N/A,,Overcast,300,2013-08-01 08:35:00
3:55 AM,69.8,57.2,64,29.98,7.0,NW,4.6,-,N/A,,Mostly Cloudy,310,2013-08-01 08:55:00
4:15 AM,68.0,57.2,68,29.98,7.0,NW,5.8,-,N/A,,Mostly Cloudy,320,2013-08-01 09:15:00
4:35 AM,68.0,57.2,68,29.98,6.0,NW,4.6,-,N/A,,Scattered Clouds,320,2013-08-01 09:35:00
4:55 AM,68.0,57.2,68,29.99,5.0,NW,4.6,-,N/A,,Partly Cloudy,320,2013-08-01 09:55:00
5:15 AM,66.2,55.4,68,29.99,5.0,Calm,Calm,-,N/A,,Scattered Clouds,0,2013-08-01 10:15:00
5:35 AM,66.2,55.4,68,30.01,4.0,Calm,Calm,-,N/A,,Scattered Clouds,0,2013-08-01 10:35:00
5:55 AM,66.2,55.4,68,30.01,3.0,Calm,Calm,-,N/A,,Overcast,0,2013-08-01 10:55:00
6:15 AM,64.4,55.4,73,30.02,1.5,Calm,Calm,-,N/A,,Mostly Cloudy,0,2013-08-01 11:15:00
6:35 AM,66.2,55.4,68,30.02,2.0,Calm,Calm,-,N/A,,Clear,0,2013-08-01 11:35:00
6:55 AM,66.2,57.2,73,30.02,2.0,Calm,Calm,-,N/A,,Clear,0,2013-08-01 11:55:00
7:15 AM,68.0,57.2,68,30.02,3.0,NNW,3.5,-,N/A,,Clear,330,2013-08-01 12:15:00
7:35 AM,69.8,57.2,64,30.03,5.0,NNW,3.5,-,N/A,,Clear,330,2013-08-01 12:35:00
7:55 AM,69.8,59.0,68,30.03,8.0,NW,3.5,-,N/A,,Partly Cloudy,320,2013-08-01 12:55:00
8:15 AM,69.8,57.2,64,30.04,10.0,NNW,4.6,-,N/A,,Partly Cloudy,340,2013-08-01 13:15:00
8:35 AM,71.6,59.0,64,30.04,10.0,North,4.6,-,N/A,,Partly Cloudy,360,2013-08-01 13:35:00
8:55 AM,71.6,59.0,64,30.04,10.0,NNW,6.9,-,N/A,,Scattered Clouds,340,2013-08-01 13:55:00
9:15 AM,73.4,60.8,65,30.05,10.0,NNW,8.1,-,N/A,,Mostly Cloudy,330,2013-08-01 14:15:00
9:35 AM,73.4,60.8,65,30.05,10.0,NNW,6.9,-,N/A,,Mostly Cloudy,330,2013-08-01 14:35:00
9:55 AM,75.2,60.8,61,30.05,10.0,North,5.8,-,N/A,,Mostly Cloudy,350,2013-08-01 14:55:00
10:15 AM,75.2,60.8,61,30.05,10.0,NNW,6.9,-,N/A,,Scattered Clouds,340,2013-08-01 15:15:00
10:35 AM,75.2,60.8,61,30.04,10.0,North,5.8,-,N/A,,Scattered Clouds,10,2013-08-01 15:35:00
10:55 AM,78.8,60.8,54,30.04,10.0,NNW,6.9,-,N/A,,Mostly Cloudy,330,2013-08-01 15:55:00
11:15 AM,78.8,60.8,54,30.04,10.0,NNW,5.8,-,N/A,,Scattered Clouds,340,2013-08-01 16:15:00
11:35 AM,78.8,60.8,54,30.04,10.0,NW,8.1,-,N/A,,Scattered Clouds,310,2013-08-01 16:35:00
11:55 AM,80.6,60.8,51,30.04,10.0,NW,6.9,-,N/A,,Mostly Cloudy,310,2013-08-01 16:55:00
12:15 PM,80.6,62.6,54,30.04,10.0,West,8.1,-,N/A,,Scattered Clouds,280,2013-08-01 17:15:00
12:35 PM,80.6,62.6,54,30.04,10.0,NNW,8.1,-,N/A,,Scattered Clouds,330,2013-08-01 17:35:00
12:55 PM,82.4,62.6,51,30.04,10.0,WNW,10.4,-,N/A,,Partly Cloudy,300,2013-08-01 17:55:00
1:15 PM,82.4,60.8,48,30.03,10.0,NW,8.1,-,N/A,,Scattered Clouds,320,2013-08-01 18:15:00
1:35 PM,82.4,62.6,51,30.03,10.0,NW,9.2,-,N/A,,Scattered Clouds,320,2013-08-01 18:35:00
1:55 PM,82.4,62.6,51,30.02,10.0,NW,8.1,-,N/A,,Scattered Clouds,310,2013-08-01 18:55:00
2:15 PM,82.4,60.8,48,30.02,10.0,NNW,10.4,-,N/A,,Scattered Clouds,340,2013-08-01 19:15:00
2:35 PM,82.4,60.8,48,30.02,10.0,NNW,6.9,-,N/A,,Partly Cloudy,330,2013-08-01 19:35:00
2:55 PM,82.4,60.8,48,30.01,10.0,NW,9.2,-,N/A,,Clear,320,2013-08-01 19:55:00
3:16 PM,82.4,59.0,45,30.01,10.0,NW,10.4,-,N/A,,Clear,310,2013-08-01 20:16:00
3:35 PM,82.4,59.0,45,30.01,10.0,NNW,11.5,-,N/A,,Clear,330,2013-08-01 20:35:00
3:55 PM,82.4,57.2,42,30.01,10.0,NNW,9.2,-,N/A,,Clear,330,2013-08-01 20:55:00
4:15 PM,82.4,57.2,42,30.01,10.0,NNW,5.8,-,N/A,,Partly Cloudy,340,2013-08-01 21:15:00
4:35 PM,82.4,57.2,42,30.00,10.0,NNW,5.8,-,N/A,,Clear,330,2013-08-01 21:35:00
4:55 PM,82.4,57.2,42,30.00,10.0,NW,6.9,-,N/A,,Clear,320,2013-08-01 21:55:00
5:15 PM,82.4,57.2,42,30.00,10.0,NW,6.9,-,N/A,,Clear,320,2013-08-01 22:15:00
5:35 PM,82.4,57.2,42,30.00,10.0,NNW,5.8,-,N/A,,Clear,330,2013-08-01 22:35:00
6:15 PM,80.6,57.2,45,29.99,10.0,NNW,5.8,-,N/A,,Clear,330,2013-08-01 23:15:00
6:35 PM,80.6,57.2,45,29.99,10.0,NNW,4.6,-,N/A,,Clear,330,2013-08-01 23:35:00
6:55 PM,80.6,57.2,45,29.98,10.0,NW,3.5,-,N/A,,Clear,320,2013-08-01 23:55:00
7:15 PM,80.6,59.0,48,29.99,10.0,Calm,Calm,-,N/A,,Clear,0,2013-08-02 00:15:00
7:35 PM,78.8,60.8,54,29.99,10.0,Calm,Calm,-,N/A,,Clear,0,2013-08-02 00:35:00
7:55 PM,73.4,59.0,61,29.99,10.0,Calm,Calm,-,N/A,,Clear,0,2013-08-02 00:55:00
8:15 PM,71.6,59.0,64,29.99,10.0,Calm,Calm,-,N/A,,Clear,0,2013-08-02 01:15:00
8:35 PM,69.8,57.2,64,29.99,10.0,Calm,Calm,-,N/A,,Clear,0,2013-08-02 01:35:00
8:55 PM,69.8,57.2,64,30.00,10.0,Calm,Calm,-,N/A,,Clear,0,2013-08-02 01:55:00
9:15 PM,66.2,55.4,68,30.00,10.0,Calm,Calm,-,N/A,,Clear,0,2013-08-02 02:15:00
9:35 PM,66.2,55.4,68,30.00,10.0,SSW,3.5,-,N/A,,Clear,210,2013-08-02 02:35:00
10:15 PM,66.2,55.4,68,30.00,10.0,Calm,Calm,-,N/A,,Clear,0,2013-08-02 03:15:00
10:35 PM,64.4,53.6,68,30.01,10.0,Calm,Calm,-,N/A,,Clear,0,2013-08-02 03:35:00
10:55 PM,64.4,53.6,68,30.00,10.0,Calm,Calm,-,N/A,,Clear,0,2013-08-02 03:55:00
11:15 PM,64.4,53.6,68,30.01,10.0,Calm,Calm,-,N/A,,Clear,0,2013-08-02 04:15:00
11:35 PM,64.4,53.6,68,30.01,10.0,SSW,4.6,-,N/A,,Clear,210,2013-08-02 04:35:00